Cloud_Cover
89 0 0 98 100 100 92 100 96 100 100 100 100 78 57 100 100 100 100 100 100 94 100 100 100 100 100 89 99 65 43 98 98 100 100 100 100 99 100 61 100 100 100 63 29
83 0 3 93 100 100 100 100 100 100 100 100 100 100 65 100 100 100 100 100 100 10 100 100 100 88 100 100 98 81 100 98 100 90 100 49 100 100 100 97 76 100 100 100 95
0 5 36 93 97 100 100 100 100 100 100 100 91 100 100 100 100 100 100 100 100 100 100 100 100 100 100 100 100 81 100 100 100 31 96 58 97 100 100 100 67 100 100 81 100
2 13 100 100 100 100 100 100 100 100 100 100 100 100 100 100 74 100 100 100 31 100 100 100 100 100 100 100 100 100 100 100 100 14 93 80 81 100 100 100 97 100 89 60 100
4 8 27 84 100 100 100 100 100 100 100 100 100 100 100 100 100 100 100 100 100 80 100 100 100 100 100 100 100 99 100 100 100 66 80 91 62 99 100 100 100 100 100 100 100
0 0 0 88 100 99 100 100 100 100 100 100 100 100 100 100 100 100 100 100 100 100 100 100 100 100 100 100 100 100 100 100 100 100 100 100 42 94 100 100 98 100 100 81 100
0 0 5 4 99 100 100 100 100 100 100 100 100 100 100 100 100 100 100 100 100 100 100 100 100 100 100 100 100 100 100 100 100 100 100 100 100 99 99 100 100 98 100 100 100
0 0 1 77 100 100 100 100 100 100 100 100 100 100 100 100 100 100 100 100 100 100 100 100 100 100 100 100 100 100 98 89 100 100 100 79 100 100 37 100 81 100 100 100 74
0 0 9 100 99 100 100 100 100 100 100 100 100 100 100 100 100 98 100 100 100 100 100 100 100 100 100 100 100 100 100 100 100 100 100 71 100 100 74 99 99 94 99 97 8
0 0 0 21 100 100 100 100 100 100 100 100 100 100 100 100 100 100 100 100 100 100 100 100 100 100 100 100 100 100 100 100 100 100 100 100 100 99 100 100 100 99 100 100 86
5 5 5 81 100 100 100 100 100 100 100 100 100 100 89 100 100 100 100 100 100 100 100 100 100 100 100 100 100 100 100 100 100 100 100 100 100 5 100 100 98 100 100 100 100
5 10 29 100 100 100 100 100 97 100 100 100 100 94 100 100 100 100 100 100 100 100 100 100 100 100 100 100 100 100 100 100 100 100 95 100 100 88 100 100 100 100 99 100 100
5 100 100 100 100 100 100 100 100 100 100 100 100 100 100 100 100 100 100 100 100 100 98 100 100 99 100 100 100 100 100 100 100 100 100 99 100 90 97 100 100 100 100 100 100
7 100 100 100 100 100 100 100 100 100 100 100 100 100 100 100 100 100 100 100 100 100 100 100 100 99 100 100 100 100 100 100 100 100 100 95 39 42 5 76 100 100 100 100 100
40 100 100 100 100 100 100 100 100 100 100 100 100 100 100 100 100 100 100 100 100 100 100 100 100 76 100 100 96 100 100 100 100 100 98 100 15 77 5 97 70 100 100 100 100
100 100 100 100 100 100 100 100 100 100 100 100 100 100 98 100 100 100 100 100 100 100 100 100 100 100 98 100 100 100 100 100 100 100 99 47 77 95 38 100 98 100 100 100 100
37 100 100 100 100 100 100 100 100 100 100 100 100 100 100 100 100 100 100 100 100 100 100 100 100 100 100 100 100 100 100 100 100 100 38 15 75 96 100 100 100 100 100 100 93
100 100 100 100 100 100 100 100 100 100 100 100 100 100 100 100 98 100 100 100 100 100 100 100 100 100 100 100 95 100 100 100 100 100 99 99 29 99 100 100 100 100 100 70 49
90 100 100 100 100 100 100 100 100 100 100 100 100 100 100 61 60 100 100 95 100 100 100 100 100 100 100 100 100 100 100 100 100 100 100 100 100 62 97 54 98 100 100 100 100
100 100 100 100 100 100 100 100 100 100 100 100 100 64 100 98 99 48 100 57 100 100 100 98 100 100 100 100 100 100 82 100 100 100 100 75 98 100 98 100 82 100 100 100 100
100 100 100 100 100 100 100 100 98 100 94 100 20 21 17 100 18 68 81 25 100 100 25 100 100 100 100 100 100 100 100 100 100 100 100 100 94 100 100 100 99 100 100 100 100
100 100 100 100 100 100 100 100 100 100 83 19 8 99 100 100 100 100 49 89 100 100 98 100 100 100 100 100 100 90 44 89 98 100 100 100 100 100 100 100 100 100 100 100 100
100 100 100 100 100 100 100 100 100 100 100 75 13 67 98 100 78 100 100 93 98 100 100 100 100 100 100 100 99 65 45 16 87 100 100 100 100 100 100 100 100 100 100 100 100
100 100 100 100 100 100 100 100 100 100 100 93 5 16 100 100 100 100 100 100 100 100 100 100 100 100 100 86 100 100 40 64 99 100 100 100 100 100 100 100 100 100 100 100 100
100 100 100 100 100 100 100 100 83 100 100 57 5 4 98 100 100 100 100 100 95 100 100 80 98 100 100 98 100 100 70 5 39 6 90 100 100 100 100 100 100 100 100 100 100
100 100 100 100 100 100 100 100 100 54 75 100 0 5 5 35 78 26 42 96 56 99 85 46 86 100 100 100 100 100 84 6 5 5 6 100 100 100 100 100 100 100 100 100 100
100 100 100 100 100 100 100 100 100 100 95 42 100 100 79 19 37 99 100 100 100 100 100 100 100 98 100 100 100 63 5 35 5 0 0 99 100 100 100 100 100 100 100 100 100